User: anonymous   Login
Location: The D'Auria's Ocala Star Observatory
(29.0276°N, 82.1742°W)
Time: 17:34:07
(UTC-04:00)
Language:

Abrixas rocket - Orbit

View from above orbital plane
View from above orbital plane
View from above satellite
View from above satellite

Ground track
Ground track

The orbit data is extracted from the following two-line orbital elements,

1 25723U 99022C   18147.04070080 +.00004877 +00000-0 +66232-4 0  9990
2 25723 048.4141 126.5896 0008816 259.7840 100.2113 15.59461835059759
Epoch (UTC): 27 May 2018 00:58:36
Eccentricity: 0.0008816
inclination: 48.4141°
perigee height: 383 km
apogee height: 395 km
right ascension of ascending node: 126.5896°
argument of perigee: 259.7840°
revolutions per day: 15.59461835
mean anomaly at epoch: 100.2113°
orbit number at epoch: 5975

The dashed part of the orbit path shows where the satellite is in the earth's shadow,  

DLR